SCP
0 0 0 0 -0 -0 -0 -0 -0 0 0 0 0 0 0 0 -0 0 0 0 0 0 0 -0 -0 0 -0 0 0 -0 0 -0 0 -0 0 0 0 0 0 -0 -0 0 -0 -0 0
0 0 0 0 -0 -0 -0 -0 -0 0 0 0 0 0 0 0 0 0 0 0 0 0 -0 -0 -0 0 0 -0 0 -0 0 0 0 0 -0 0 -0 0 0 -0 0 -0 -0 -0 0
0 0 0 -0 0 -0 -0 -0 -0 0 0 0 0 0 0 0 0 0 0 0 0 -0 -0 -0 -0 -0 -0 -0 0 0 -0 0 0 0 0 0 0 0 0 -0 -0 -0 -0 -0 -0
0 0 0 0 -0 -0 -0 -0 -0 0 0 0 0 0 0 0 0 0 0 0 0 -0 0 0 -0 -0 -0 -0 0 0 -0 -0 0 0 0 0 0 0 0 0 -0 -0 -0 -0 -0
0 0 -0 0 -0 -0 0 -0 -0 0 0 0 0 0 0 0 0 0 0 0 0 -0 0 -0 -0 -0 0 -0 0 -0 -0 0 0 0 -0 0 -0 0 0 0 -0 -0 -0 -0 -0
0 0 0 0 0 -0 -0 -0 -0 0 0 0 0 0 0 0 0 0 0 0 0 -0 0 0 0 0 0 0 0 0 0 0 0 -0 0 0 0 0 0 0 -0 -0 -0 -0 -0
0 0 0 0 -0 -0 -0 -0 -0 -0 0 0 0 0 0 0 0 0 0 0 0 0 0 0 0 0 0 0 0 0 0 0 -0 -0 -0 -0 0 0 0 0 -0 0 -0 -0 -0
0 0 0 0 -0 -0 -0 -0 -0 -0 -0 0 0 0 0 0 0 0 0 0 0 0 0 0 0 0 0 0 0 -0 0 0 -0 -0 -0 0 -0 0 0 0 -0 -0 -0 0 0
0 0 0 0 -0 -0 -0 -0 -0 -0 -0 -0 0 0 0 0 0 0 0 0 0 0 0 0 0 0 0 0 -0 0 -0 0 -0 0 -0 -0 0 -0 0 0 -0 -0 -0 0 -0
-0 0 0 0 -0 -0 -0 -0 -0 -0 -0 -0 0 0 0 0 0 0 0 0 0 0 0 0 0 0 0 0 0 0 0 -0 -0 0 -0 -0 -0 -0 0 0 0 0 -0 -0 -0
-0 -0 0 -0 -0 -0 -0 -0 0 0 0 0 0 0 -0 0 0 0 0 0 0 0 0 0 0 0 0 0 0 0 0 0 0 -0 -0 0 0 -0 0 -0 0 0 -0 -0 -0
-0 -0 -0 -0 -0 -0 -0 -0 0 0 -0 0 0 0 0 0 0 0 -0 0 0 0 0 0 0 0 0 0 0 0 0 0 -0 -0 0 -0 -0 0 -0 -0 -0 0 0 -0 -0
-0 -0 -0 -0 -0 -0 -0 -0 -0 0 -0 0 -0 -0 -0 -0 0 0 -0 0 0 0 0 0 0 0 0 0 0 0 -0 0 0 0 0 0 0 -0 -0 -0 -0 -0 0 -0 0
-0 -0 -0 -0 -0 -0 0 -0 -0 -0 0 0 -0 0 0 -0 -0 0 0 0 0 0 0 0 0 0 0 0 0 0 0 -0 0 -0 0 0 0 -0 -0 -0 -0 -0 0 -0 0
-0 -0 -0 -0 -0 0 -0 -0 -0 0 -0 -0 -0 0 0 -0 0 0 -0 0 0 0 0 0 0 0 0 0 0 0 0 0 0 0 0 0 0 0 -0 -0 -0 -0 -0 -0 -0
-0 -0 -0 0 0 -0 -0 -0 0 -0 0 -0 -0 -0 -0 -0 -0 0 0 0 0 0 0 0 0 0 0 0 0 0 0 0 0 0 0 0 0 -0 -0 -0 -0 -0 -0 -0 -0
-0 0 0 -0 -0 -0 -0 -0 -0 0 0 -0 0 0 0 -0 0 0 0 0 0 0 0 0 0 0 0 0 0 0 0 0 0 0 0 0 0 0 0 -0 -0 -0 -0 -0 -0
0 -0 0 -0 -0 -0 -0 -0 -0 -0 -0 0 -0 0 0 0 -0 -0 -0 -0 0 0 0 0 0 0 0 0 0 0 0 0 0 0 -0 0 0 0 -0 0 -0 -1 -0 -0 -0
-0 0 0 0 -0 -0 -0 -0 0 -0 -0 0 0 0 0 0 0 -0 -0 0 0 0 0 0 0 0 0 0 0 0 0 0 0 0 0 0 0 0 0 0 0 -0 -0 -0 -0
-0 0 -0 0 -0 -0 -0 0 -0 0 0 0 0 0 0 -0 0 0 0 0 0 0 0 0 0 0 0 0 0 0 0 0 0 0 0 0 0 0 0 0 0 0 -0 -0 -0
-0 -0 0 -0 -0 0 0 -0 -0 0 0 -0 -0 -0 0 0 0 0 0 0 0 0 0 0 0 0 0 0 0 0 0 0 0 0 0 0 0 0 0 0 0 0 0 -0 0
-0 -0 0 0 -0 0 -0 0 -0 -0 0 0 0 0 0 0 0 0 -0 0 0 0 0 0 0 -0 0 0 0 0 0 0 0 0 0 0 0 0 0 0 0 0 0 -0 -0
-0 -0 -0 0 0 -0 -0 0 -0 -0 0 0 0 0 0 0 0 0 0 0 0 0 0 0 0 0 0 0 0 0 0 0 0 0 0 0 0 0 0 0 0 0 0 -0 -0
0 -0 -0 0 0 -0 -0 -0 -0 0 0 0 0 0 -0 0 0 0 -0 0 0 0 0 0 0 0 0 0 0 -0 0 0 0 0 0 0 0 0 0 0 0 0 1 0 0
0 -0 -0 0 -0 -0 -0 -0 -0 -0 0 0 0 0 0 0 0 0 0 0 0 0 0 0 0 0 0 0 0 0 0 0 0 0 0 0 0 0 0 1 0 1 1 1 0
-0 -0 -0 0 -0 -0 -0 0 -0 -0 -0 -0 0 0 0 0 0 0 0 0 0 0 0 0 0 0 0 -0 0 0 0 0 0 0 0 0 0 0 0 0 1 0 0 1 1
-0 -0 -0 0 -0 0 0 0 -0 0 0 -0 -0 -0 0 -0 -0 -0 0 0 0 0 0 0 0 0 0 0 0 0 0 0 0 0 0 0 1 0 0 1 0 0 0 0 0
Wind_Speed_500mb
22 19 16 14 14 16 15 13 13 14 13 12 13 15 14 14 17 20 19 18 26 22 31 21 23 21 23 11 9 12 4 5 23 31 20 28 17 12 18 26 21 10 46 49 46
25 23 18 14 14 15 16 14 13 13 13 13 12 13 13 13 16 29 26 27 27 28 31 30 28 25 31 21 12 20 6 12 17 23 27 27 19 21 24 22 21 42 49 49 43
26 25 20 16 13 14 16 15 14 13 13 13 11 10 12 9 15 20 31 28 30 33 28 26 20 24 28 18 14 14 5 20 3 9 20 17 20 14 20 22 35 45 55 47 43
25 25 23 17 14 13 14 15 13 13 13 13 11 10 8 10 4 7 16 28 34 35 30 30 26 30 31 9 14 7 23 30 18 10 25 21 6 22 14 26 34 42 49 46 41
25 26 23 18 15 12 12 13 14 13 13 13 12 10 10 12 11 10 14 25 37 41 36 33 31 32 28 15 19 15 27 19 32 19 28 27 27 16 15 14 37 44 44 42 37
24 26 23 17 13 10 9 10 12 12 12 11 11 12 8 27 5 6 16 32 33 38 35 34 24 29 23 15 11 25 30 23 18 29 19 26 11 8 9 30 45 44 41 38 35
23 24 21 14 10 8 8 8 7 7 7 7 8 12 17 5 5 12 21 28 32 33 33 33 21 23 17 14 9 30 19 20 29 25 30 40 12 15 12 31 41 41 38 36 34
22 22 18 13 8 9 11 11 7 3 2 7 11 9 14 10 10 19 27 29 29 27 27 28 19 30 31 5 23 29 26 18 23 28 23 14 26 11 30 32 40 40 39 37 34
20 20 18 11 8 10 10 9 9 8 6 8 6 11 13 11 19 23 29 33 31 26 23 18 21 31 26 20 29 26 23 23 26 30 23 16 15 32 43 39 41 39 40 39 36
17 18 17 11 9 10 12 6 1 3 5 5 10 14 20 27 31 26 27 31 35 29 22 26 26 27 24 28 26 18 29 28 31 30 32 32 21 37 44 36 32 26 40 37 39
14 15 14 10 9 11 12 11 3 9 19 18 21 12 19 33 28 27 27 36 33 31 27 36 26 33 36 39 18 17 16 13 9 44 37 26 21 36 29 26 26 27 34 42 37
12 12 11 9 7 9 6 8 17 16 16 15 12 7 8 29 33 29 35 31 30 31 37 25 35 36 34 24 15 11 32 27 42 32 23 26 23 33 38 38 37 15 35 42 53
13 12 12 9 5 5 8 14 14 17 17 16 19 21 23 26 29 36 41 29 32 36 36 30 31 33 24 11 22 29 32 9 1 25 17 30 22 28 35 42 50 39 56 31 22
15 12 11 6 1 5 11 6 12 14 12 17 22 14 22 31 25 32 36 23 22 35 31 31 16 22 19 27 29 24 10 31 44 32 16 33 11 32 35 41 52 67 63 39 33
19 13 9 8 9 11 5 10 15 8 3 17 19 17 27 43 44 32 32 26 29 29 21 29 27 18 26 33 24 9 19 20 7 25 11 16 12 10 43 40 54 71 73 49 71
20 15 11 8 15 13 12 17 14 12 7 14 14 18 28 30 23 36 29 22 23 26 28 19 13 23 34 27 12 10 17 20 16 19 21 40 26 24 37 47 48 57 71 62 67
19 14 12 12 4 10 14 18 8 7 13 17 27 26 34 29 27 32 30 31 19 25 26 16 19 21 18 22 17 24 28 16 15 13 21 4 12 23 9 37 49 61 64 69 70
16 10 12 15 14 15 18 25 18 10 7 12 14 33 15 28 32 31 28 28 31 32 31 22 30 35 25 31 23 34 35 22 29 23 27 31 11 23 39 27 41 57 58 66 71
6 6 10 10 17 15 22 20 15 16 3 16 13 24 16 8 8 25 26 19 14 23 19 29 28 42 26 31 28 28 33 42 36 30 24 5 2 16 28 27 32 50 62 59 67
9 12 12 15 18 13 23 7 17 8 5 10 10 23 16 23 18 20 22 19 22 16 22 5 15 17 25 25 33 35 16 30 23 31 34 22 24 5 24 28 28 30 53 60 62
18 15 13 12 12 23 12 22 14 11 12 11 27 27 12 18 6 17 29 13 6 20 22 25 25 17 29 23 27 25 26 18 28 26 26 24 9 16 32 28 27 31 41 62 68
18 10 18 13 25 21 15 11 9 15 4 3 11 13 4 5 14 14 16 18 10 8 20 23 14 28 31 36 34 21 37 31 20 24 27 33 10 24 9 16 22 23 35 60 67
16 27 18 10 13 13 18 14 22 10 9 6 5 10 10 4 7 7 17 11 5 16 22 3 19 8 11 24 20 23 25 32 37 33 33 25 9 16 14 17 20 23 35 49 60
10 11 16 20 18 23 16 12 16 3 9 8 2 4 9 8 6 5 15 10 5 9 14 13 27 29 15 16 30 36 39 20 32 22 24 26 35 19 22 24 25 22 38 41 47
17 9 6 13 14 7 4 5 14 18 9 2 4 10 10 4 9 5 2 19 14 9 10 12 26 21 13 15 25 24 15 31 28 33 33 24 25 9 27 33 36 36 26 33 38
15 4 18 10 2 14 7 10 15 13 12 10 5 3 5 14 14 6 10 7 9 16 13 10 20 21 25 25 15 20 20 15 22 28 34 37 4 21 32 44 33 38 31 29 30
9 10 15 15 18 22 14 9 16 11 9 14 13 17 8 18 17 15 13 13 10 15 9 7 17 9 26 29 15 25 27 21 24 14 17 19 22 7 8 24 25 33 33 33 31
Wind_Direction_500mb
354 344 329 312 297 287 283 282 278 271 268 269 265 262 248 249 256 256 245 226 218 207 183 182 195 203 198 226 200 201 187 208 119 129 145 108 117 96 100 131 131 97 140 140 143
357 352 341 317 294 285 282 282 280 275 266 264 268 267 259 247 257 254 235 222 216 198 186 188 196 192 205 211 208 234 151 144 321 117 133 128 175 136 149 120 134 117 130 143 147
355 354 346 333 301 288 283 281 279 281 270 265 263 267 261 235 285 233 216 223 197 195 186 194 201 203 241 223 197 258 167 140 103 29 117 122 177 134 143 138 140 138 145 150 150
355 354 347 338 319 294 284 282 281 279 270 263 256 240 231 217 231 191 228 202 188 186 190 203 214 214 250 215 154 99 110 151 156 187 133 132 227 78 20 121 137 145 149 150 155
355 355 353 345 337 319 303 290 287 283 275 264 253 220 181 228 258 267 209 195 180 181 196 203 213 216 246 165 150 153 124 176 165 121 112 119 101 91 55 151 139 147 150 154 158
356 355 355 356 349 341 323 306 297 294 284 268 245 204 193 244 200 278 152 174 181 182 198 202 211 228 295 198 162 141 150 145 119 137 99 104 121 55 32 132 142 150 156 161 156
357 358 359 6 9 14 1 332 304 289 272 247 219 206 252 292 234 200 173 169 179 189 199 206 221 226 257 202 143 143 144 151 138 139 133 127 90 119 165 151 149 157 163 161 158
357 360 3 10 33 30 20 19 15 14 162 174 174 169 272 211 184 173 177 174 175 190 205 202 218 251 257 194 196 188 166 149 153 143 157 194 165 179 190 192 166 160 157 158 159
357 1 5 12 17 13 6 14 41 68 105 140 101 198 225 179 175 176 176 177 173 173 193 200 220 230 213 216 204 208 204 143 166 185 158 175 129 168 210 194 174 164 157 160 159
354 1 3 4 358 5 5 13 346 153 106 151 248 229 217 193 165 163 169 180 180 177 184 211 213 217 230 218 219 210 178 192 163 170 169 185 159 172 202 182 173 165 164 164 161
352 359 360 355 337 340 338 337 288 219 231 267 151 275 154 151 160 164 175 169 185 193 198 201 212 212 205 218 140 284 277 283 18 166 163 169 145 174 189 187 164 225 178 179 158
339 349 347 341 308 308 300 261 14 343 284 203 210 243 172 164 163 166 165 175 195 206 208 185 219 215 239 222 236 220 273 167 176 148 132 162 145 167 176 191 207 191 219 211 149
327 335 340 336 289 261 246 284 317 323 249 152 190 196 181 191 180 171 184 203 195 213 203 205 205 227 219 209 231 230 235 194 209 162 160 133 147 186 188 193 192 211 212 229 215
325 327 333 336 144 251 265 278 318 310 258 130 174 173 174 202 187 174 194 207 203 214 204 229 220 196 187 231 229 233 222 111 272 175 175 187 159 189 186 191 196 202 217 187 226
326 316 305 230 234 250 277 305 309 281 203 146 131 145 173 214 129 179 190 219 214 212 205 214 160 209 215 223 213 86 280 255 236 150 156 243 154 199 182 199 196 199 204 204 186
321 308 289 274 249 238 282 291 307 237 126 142 139 186 178 216 192 152 190 231 225 218 215 267 183 214 221 212 207 239 235 247 250 265 245 187 236 181 198 196 195 194 199 199 203
311 294 255 229 173 242 273 284 297 194 190 154 177 168 197 157 135 171 187 203 188 190 197 146 219 200 258 206 184 232 233 203 217 219 247 212 209 116 259 181 188 187 204 193 199
302 265 239 223 233 256 274 251 236 32 106 64 181 194 167 160 148 183 190 197 230 217 175 195 182 208 192 225 189 223 234 236 200 217 222 152 202 144 162 155 180 183 196 193 196
288 231 229 246 211 239 273 275 31 70 43 169 223 120 145 119 180 183 193 189 197 242 269 188 236 176 201 213 250 186 229 259 279 291 265 252 309 140 143 147 169 184 188 192 194
167 197 158 208 215 237 255 303 85 37 284 289 271 86 221 158 190 214 182 197 160 276 295 312 208 168 191 220 216 258 221 232 256 255 256 147 194 314 171 166 172 195 184 187 188
159 188 164 183 202 237 243 79 101 97 302 303 226 134 19 241 281 171 190 125 47 169 261 275 243 157 188 208 216 207 238 245 264 243 265 271 72 69 163 162 166 189 197 171 175
263 143 182 201 244 243 101 99 312 117 173 42 11 357 159 45 160 188 205 123 105 273 202 240 272 182 190 214 229 271 211 233 233 225 262 279 149 285 2 123 145 177 182 167 173
256 119 189 228 268 110 130 90 24 65 18 39 88 24 330 110 261 77 80 83 149 259 13 308 250 181 298 174 207 246 250 225 228 236 251 259 135 156 158 132 146 166 168 154 167
258 153 176 230 302 130 155 121 112 15 92 55 44 235 221 191 223 232 123 112 152 47 347 310 268 298 106 312 302 199 232 236 273 260 245 240 121 163 170 148 144 150 138 156 157
241 157 168 198 194 25 356 101 70 121 136 210 77 360 346 209 190 156 196 136 187 128 239 276 289 288 138 232 288 340 220 212 244 267 274 261 359 60 185 155 148 143 150 154 165
307 353 198 88 127 231 142 88 102 90 11 110 104 95 14 46 8 38 311 280 188 172 240 251 272 291 297 277 247 271 256 273 271 250 256 277 190 34 0 115 123 135 159 169 172
331 289 272 132 207 226 133 121 103 124 53 15 6 300 126 49 330 333 291 306 21 280 229 250 269 238 269 263 231 251 243 239 253 281 278 279 70 228 154 121 126 141 154 168 169
Wind_Speed_850mb
22 19 16 14 14 16 15 13 13 14 13 12 13 15 14 14 17 20 19 18 26 22 31 21 23 21 23 11 9 12 4 5 23 31 20 28 17 12 18 26 21 10 46 49 46
25 23 18 14 14 15 16 14 13 13 13 13 12 13 13 13 16 29 26 27 27 28 31 30 28 25 31 21 12 20 6 12 17 23 27 27 19 21 24 22 21 42 49 49 43
26 25 20 16 13 14 16 15 14 13 13 13 11 10 12 9 15 20 31 28 30 33 28 26 20 24 28 18 14 14 5 20 3 9 20 17 20 14 20 22 35 45 55 47 43
25 25 23 17 14 13 14 15 13 13 13 13 11 10 8 10 4 7 16 28 34 35 30 30 26 30 31 9 14 7 23 30 18 10 25 21 6 22 14 26 34 42 49 46 41
25 26 23 18 15 12 12 13 14 13 13 13 12 10 10 12 11 10 14 25 37 41 36 33 31 32 28 15 19 15 27 19 32 19 28 27 27 16 15 14 37 44 44 42 37
24 26 23 17 13 10 9 10 12 12 12 11 11 12 8 27 5 6 16 32 33 38 35 34 24 29 23 15 11 25 30 23 18 29 19 26 11 8 9 30 45 44 41 38 35
23 24 21 14 10 8 8 8 7 7 7 7 8 12 17 5 5 12 21 28 32 33 33 33 21 23 17 14 9 30 19 20 29 25 30 40 12 15 12 31 41 41 38 36 34
22 22 18 13 8 9 11 11 7 3 2 7 11 9 14 10 10 19 27 29 29 27 27 28 19 30 31 5 23 29 26 18 23 28 23 14 26 11 30 32 40 40 39 37 34
20 20 18 11 8 10 10 9 9 8 6 8 6 11 13 11 19 23 29 33 31 26 23 18 21 31 26 20 29 26 23 23 26 30 23 16 15 32 43 39 41 39 40 39 36
17 18 17 11 9 10 12 6 1 3 5 5 10 14 20 27 31 26 27 31 35 29 22 26 26 27 24 28 26 18 29 28 31 30 32 32 21 37 44 36 32 26 40 37 39
14 15 14 10 9 11 12 11 3 9 19 18 21 12 19 33 28 27 27 36 33 31 27 36 26 33 36 39 18 17 16 13 9 44 37 26 21 36 29 26 26 27 34 42 37
12 12 11 9 7 9 6 8 17 16 16 15 12 7 8 29 33 29 35 31 30 31 37 25 35 36 34 24 15 11 32 27 42 32 23 26 23 33 38 38 37 15 35 42 53
13 12 12 9 5 5 8 14 14 17 17 16 19 21 23 26 29 36 41 29 32 36 36 30 31 33 24 11 22 29 32 9 1 25 17 30 22 28 35 42 50 39 56 31 22
15 12 11 6 1 5 11 6 12 14 12 17 22 14 22 31 25 32 36 23 22 35 31 31 16 22 19 27 29 24 10 31 44 32 16 33 11 32 35 41 52 67 63 39 33
19 13 9 8 9 11 5 10 15 8 3 17 19 17 27 43 44 32 32 26 29 29 21 29 27 18 26 33 24 9 19 20 7 25 11 16 12 10 43 40 54 71 73 49 71
20 15 11 8 15 13 12 17 14 12 7 14 14 18 28 30 23 36 29 22 23 26 28 19 13 23 34 27 12 10 17 20 16 19 21 40 26 24 37 47 48 57 71 62 67
19 14 12 12 4 10 14 18 8 7 13 17 27 26 34 29 27 32 30 31 19 25 26 16 19 21 18 22 17 24 28 16 15 13 21 4 12 23 9 37 49 61 64 69 70
16 10 12 15 14 15 18 25 18 10 7 12 14 33 15 28 32 31 28 28 31 32 31 22 30 35 25 31 23 34 35 22 29 23 27 31 11 23 39 27 41 57 58 66 71
6 6 10 10 17 15 22 20 15 16 3 16 13 24 16 8 8 25 26 19 14 23 19 29 28 42 26 31 28 28 33 42 36 30 24 5 2 16 28 27 32 50 62 59 67
9 12 12 15 18 13 23 7 17 8 5 10 10 23 16 23 18 20 22 19 22 16 22 5 15 17 25 25 33 35 16 30 23 31 34 22 24 5 24 28 28 30 53 60 62
18 15 13 12 12 23 12 22 14 11 12 11 27 27 12 18 6 17 29 13 6 20 22 25 25 17 29 23 27 25 26 18 28 26 26 24 9 16 32 28 27 31 41 62 68
18 10 18 13 25 21 15 11 9 15 4 3 11 13 4 5 14 14 16 18 10 8 20 23 14 28 31 36 34 21 37 31 20 24 27 33 10 24 9 16 22 23 35 60 67
16 27 18 10 13 13 18 14 22 10 9 6 5 10 10 4 7 7 17 11 5 16 22 3 19 8 11 24 20 23 25 32 37 33 33 25 9 16 14 17 20 23 35 49 60
10 11 16 20 18 23 16 12 16 3 9 8 2 4 9 8 6 5 15 10 5 9 14 13 27 29 15 16 30 36 39 20 32 22 24 26 35 19 22 24 25 22 38 41 47
17 9 6 13 14 7 4 5 14 18 9 2 4 10 10 4 9 5 2 19 14 9 10 12 26 21 13 15 25 24 15 31 28 33 33 24 25 9 27 33 36 36 26 33 38
15 4 18 10 2 14 7 10 15 13 12 10 5 3 5 14 14 6 10 7 9 16 13 10 20 21 25 25 15 20 20 15 22 28 34 37 4 21 32 44 33 38 31 29 30
9 10 15 15 18 22 14 9 16 11 9 14 13 17 8 18 17 15 13 13 10 15 9 7 17 9 26 29 15 25 27 21 24 14 17 19 22 7 8 24 25 33 33 33 31
Wind_Direction_850mb
354 344 329 312 297 287 283 282 278 271 268 269 265 262 248 249 256 256 245 226 218 207 183 182 195 203 198 226 200 201 187 208 119 129 145 108 117 96 100 131 131 97 140 140 143
357 352 341 317 294 285 282 282 280 275 266 264 268 267 259 247 257 254 235 222 216 198 186 188 196 192 205 211 208 234 151 144 321 117 133 128 175 136 149 120 134 117 130 143 147
355 354 346 333 301 288 283 281 279 281 270 265 263 267 261 235 285 233 216 223 197 195 186 194 201 203 241 223 197 258 167 140 103 29 117 122 177 134 143 138 140 138 145 150 150
355 354 347 338 319 294 284 282 281 279 270 263 256 240 231 217 231 191 228 202 188 186 190 203 214 214 250 215 154 99 110 151 156 187 133 132 227 78 20 121 137 145 149 150 155
355 355 353 345 337 319 303 290 287 283 275 264 253 220 181 228 258 267 209 195 180 181 196 203 213 216 246 165 150 153 124 176 165 121 112 119 101 91 55 151 139 147 150 154 158
356 355 355 356 349 341 323 306 297 294 284 268 245 204 193 244 200 278 152 174 181 182 198 202 211 228 295 198 162 141 150 145 119 137 99 104 121 55 32 132 142 150 156 161 156
357 358 359 6 9 14 1 332 304 289 272 247 219 206 252 292 234 200 173 169 179 189 199 206 221 226 257 202 143 143 144 151 138 139 133 127 90 119 165 151 149 157 163 161 158
357 360 3 10 33 30 20 19 15 14 162 174 174 169 272 211 184 173 177 174 175 190 205 202 218 251 257 194 196 188 166 149 153 143 157 194 165 179 190 192 166 160 157 158 159
357 1 5 12 17 13 6 14 41 68 105 140 101 198 225 179 175 176 176 177 173 173 193 200 220 230 213 216 204 208 204 143 166 185 158 175 129 168 210 194 174 164 157 160 159
354 1 3 4 358 5 5 13 346 153 106 151 248 229 217 193 165 163 169 180 180 177 184 211 213 217 230 218 219 210 178 192 163 170 169 185 159 172 202 182 173 165 164 164 161
352 359 360 355 337 340 338 337 288 219 231 267 151 275 154 151 160 164 175 169 185 193 198 201 212 212 205 218 140 284 277 283 18 166 163 169 145 174 189 187 164 225 178 179 158
339 349 347 341 308 308 300 261 14 343 284 203 210 243 172 164 163 166 165 175 195 206 208 185 219 215 239 222 236 220 273 167 176 148 132 162 145 167 176 191 207 191 219 211 149
327 335 340 336 289 261 246 284 317 323 249 152 190 196 181 191 180 171 184 203 195 213 203 205 205 227 219 209 231 230 235 194 209 162 160 133 147 186 188 193 192 211 212 229 215
325 327 333 336 144 251 265 278 318 310 258 130 174 173 174 202 187 174 194 207 203 214 204 229 220 196 187 231 229 233 222 111 272 175 175 187 159 189 186 191 196 202 217 187 226
326 316 305 230 234 250 277 305 309 281 203 146 131 145 173 214 129 179 190 219 214 212 205 214 160 209 215 223 213 86 280 255 236 150 156 243 154 199 182 199 196 199 204 204 186
321 308 289 274 249 238 282 291 307 237 126 142 139 186 178 216 192 152 190 231 225 218 215 267 183 214 221 212 207 239 235 247 250 265 245 187 236 181 198 196 195 194 199 199 203
311 294 255 229 173 242 273 284 297 194 190 154 177 168 197 157 135 171 187 203 188 190 197 146 219 200 258 206 184 232 233 203 217 219 247 212 209 116 259 181 188 187 204 193 199
302 265 239 223 233 256 274 251 236 32 106 64 181 194 167 160 148 183 190 197 230 217 175 195 182 208 192 225 189 223 234 236 200 217 222 152 202 144 162 155 180 183 196 193 196
288 231 229 246 211 239 273 275 31 70 43 169 223 120 145 119 180 183 193 189 197 242 269 188 236 176 201 213 250 186 229 259 279 291 265 252 309 140 143 147 169 184 188 192 194
167 197 158 208 215 237 255 303 85 37 284 289 271 86 221 158 190 214 182 197 160 276 295 312 208 168 191 220 216 258 221 232 256 255 256 147 194 314 171 166 172 195 184 187 188
159 188 164 183 202 237 243 79 101 97 302 303 226 134 19 241 281 171 190 125 47 169 261 275 243 157 188 208 216 207 238 245 264 243 265 271 72 69 163 162 166 189 197 171 175
263 143 182 201 244 243 101 99 312 117 173 42 11 357 159 45 160 188 205 123 105 273 202 240 272 182 190 214 229 271 211 233 233 225 262 279 149 285 2 123 145 177 182 167 173
256 119 189 228 268 110 130 90 24 65 18 39 88 24 330 110 261 77 80 83 149 259 13 308 250 181 298 174 207 246 250 225 228 236 251 259 135 156 158 132 146 166 168 154 167
258 153 176 230 302 130 155 121 112 15 92 55 44 235 221 191 223 232 123 112 152 47 347 310 268 298 106 312 302 199 232 236 273 260 245 240 121 163 170 148 144 150 138 156 157
241 157 168 198 194 25 356 101 70 121 136 210 77 360 346 209 190 156 196 136 187 128 239 276 289 288 138 232 288 340 220 212 244 267 274 261 359 60 185 155 148 143 150 154 165
307 353 198 88 127 231 142 88 102 90 11 110 104 95 14 46 8 38 311 280 188 172 240 251 272 291 297 277 247 271 256 273 271 250 256 277 190 34 0 115 123 135 159 169 172
331 289 272 132 207 226 133 121 103 124 53 15 6 300 126 49 330 333 291 306 21 280 229 250 269 238 269 263 231 251 243 239 253 281 278 279 70 228 154 121 126 141 154 168 169